McCook, NE

12:23 PM CST on February 20, 2017 (GMT -0600)
McCook Municipal

Weather History for KMCK - April, 2014

Change the Weather History Date:

Saturday, April 26, 2014

  Actual Average Record
Temperature  
Mean Temperature 71 °F 53 °F  
Max Temperature 91 °F 68 °F 93 °F (1955)
Min Temperature 50 °F 39 °F 23 °F (2006)
Cooling Degree Days 4    
Growing Degree Days 20 (Base 50)    
Moisture  
Dew Point 38 °F    
Average Humidity 41    
Maximum Humidity 74    
Minimum Humidity 8    
Precipitation  
Precipitation 0.00 in 0.10 in 1.65 in (1973)
Month to date precipitation 0.84 1.94  
Year to date precipitation 1.59 4.43  
Sea Level Pressure  
Sea Level Pressure 29.39 in    
Wind  
Wind Speed 11 mph (SE)    
Max Wind Speed 24 mph    
Max Gust Speed 34 mph    
Visibility 10 miles    
Events      
T = Trace of Precipitation, MM = Missing Value Source: NWS Daily Summary

Daily Weather History Graph

Daily Weather History Graph

Search for Another Location

Airport or City:

Trip Planner

Search our weather history database for the weather conditions in past years. The results will help you decide how hot, cold, wet, or windy it might be!

Date:

Astronomy

Apr. 26, 2014 Rise Set
Actual Time 6:48 AM CDT 8:32 PM CDT
Civil Twilight 6:19 AM CDT 9:01 PM CDT
Nautical Twilight 5:44 AM CDT 9:36 PM CDT
Astronomical Twilight 5:06 AM CDT 10:14 PM CDT
Moon 5:13 AM CDT (4/26) 6:02 PM CDT (4/26)
Length of Visible Light 14h 42m
Length of Day
13h 44m
Waning Crescent, 8% of the Moon is Illuminated
Apr 26
Waning Crescent
Apr 29
New
May 6
First Quarter
May 14
Full
May 21
Last Quarter

Hourly Weather History & Observations

Time (CDT) Temp. Dew Point Humidity Pressure Visibility Wind Dir Wind Speed Gust Speed Precip Events Conditions
12:53 AM 55.9 °F 35.1 °F 45% 29.63 in 10.0 mi East 10.4 mph - N/A   Clear
1:53 AM 55.0 °F 37.0 °F 51% 29.62 in 10.0 mi ESE 10.4 mph - N/A   Clear
2:53 AM 52.0 °F 37.9 °F 59% 29.57 in 10.0 mi East 9.2 mph - N/A   Clear
3:53 AM 53.1 °F 39.0 °F 59% 29.55 in 10.0 mi East 10.4 mph - N/A   Clear
4:53 AM 54.0 °F 41.0 °F 62% 29.51 in 10.0 mi ESE 13.8 mph - N/A   Clear
5:53 AM 52.0 °F 42.1 °F 69% 29.51 in 10.0 mi ESE 9.2 mph - N/A   Clear
6:53 AM 50.0 °F 42.1 °F 74% 29.50 in 10.0 mi ESE 10.4 mph - N/A   Clear
7:53 AM 51.1 °F 43.0 °F 74% 29.50 in 10.0 mi East 8.1 mph - N/A   Clear
8:53 AM 54.0 °F 45.0 °F 72% 29.51 in 10.0 mi East 6.9 mph - N/A   Clear
9:53 AM 57.9 °F 45.0 °F 62% 29.48 in 10.0 mi SE 5.8 mph - N/A   Clear
10:53 AM 64.0 °F 45.0 °F 50% 29.45 in 10.0 mi SSE 4.6 mph - N/A   Clear
11:53 AM 70.0 °F 44.1 °F 39% 29.43 in 10.0 mi ESE 4.6 mph - N/A   Clear
12:53 PM 75.0 °F 42.1 °F 31% 29.40 in 10.0 mi Variable 4.6 mph - N/A   Clear
1:53 PM 80.1 °F 44.1 °F 28% 29.35 in 10.0 mi East 12.7 mph - N/A   Clear
2:53 PM 84.0 °F 43.0 °F 24% 29.31 in 10.0 mi East 17.3 mph 21.9 mph N/A   Clear
3:21 PM 88.0 °F 30.0 °F 12% 29.37 in 10.0 mi SSW 15.0 mph - N/A   Clear
3:53 PM 88.0 °F 30.0 °F 12% 29.28 in 10.0 mi SSE 12.7 mph 25.3 mph N/A   Clear
4:53 PM 89.1 °F 21.0 °F 8% 29.24 in 10.0 mi SSW 24.2 mph 34.5 mph N/A   Clear
5:53 PM 88.0 °F 21.0 °F 9% 29.22 in 10.0 mi South 21.9 mph 28.8 mph N/A   Clear
6:53 PM 86.0 °F 21.0 °F 9% 29.21 in 10.0 mi South 15.0 mph 26.5 mph N/A   Clear
7:53 PM 81.0 °F 24.1 °F 12% 29.21 in 10.0 mi SSE 10.4 mph - N/A   Clear
8:53 PM 77.0 °F 30.9 °F 19% 29.21 in 10.0 mi SSE 17.3 mph 24.2 mph N/A   Partly Cloudy
9:53 PM 75.0 °F 52.0 °F 44% 29.21 in 10.0 mi SSE 18.4 mph - N/A   Clear
10:53 PM 71.1 °F 51.1 °F 49% 29.20 in 10.0 mi SSE 15.0 mph 23.0 mph N/A   Clear
11:53 PM 70.0 °F 45.0 °F 41% 29.18 in 10.0 mi SSE 17.3 mph - N/A   Clear